FW5284 Weather Reports


Display with metric or nautical units.
time (UTC)temp
F
wind
direction
speed
MPH
gust
MPH
rain 1hr
in
rain 24hr
in
rain mn
in
humidity
%
barometer
mb
20260509115004 52 299 0.0 0.0 0.00 0.50 0.22 96 971.3
20260509114527 52 299 0.0 0.0 0.00 0.50 0.22 96 971.2
20260509114007 52 299 0.0 0.0 0.00 0.50 0.22 96 971.2
20260509113503 52 299 0.0 0.0 0.00 0.50 0.22 96 971.2
20260509113009 52 299 0.0 0.0 0.00 0.50 0.22 96 971.2
20260509112503 52 299 0.0 0.0 0.00 0.50 0.22 96 971.3
20260509112005 52 299 0.0 0.0 0.00 0.50 0.22 96 971.2
20260509111504 52 299 0.0 0.0 0.00 0.50 0.22 96 971.2
20260509111004 51 299 0.0 0.0 0.00 0.50 0.22 96 971.1
20260509110504 51 299 0.0 0.0 0.00 0.50 0.22 96 971.0
20260509110006 51 299 0.0 0.0 0.00 0.50 0.22 96 971.0
20260509105505 51 299 0.0 0.0 0.00 0.50 0.22 96 971.0
20260509105004 51 299 0.0 0.0 0.00 0.50 0.22 96 970.9
20260509104508 51 299 0.0 0.0 0.00 0.50 0.22 96 971.1
20260509104006 51 299 0.0 0.0 0.00 0.50 0.22 96 971.1
20260509103506 51 299 0.0 0.0 0.00 0.50 0.22 96 971.1
20260509103014 51 299 0.0 0.0 0.00 0.50 0.22 96 971.1
20260509102507 51 299 0.0 0.0 0.00 0.50 0.22 96 971.0
20260509102007 51 299 0.0 0.0 0.00 0.50 0.22 96 971.0
20260509101505 51 299 0.0 0.0 0.00 0.50 0.22 96 971.1
20260509101003 51 299 0.0 0.0 0.00 0.50 0.22 96 971.2
20260509100503 51 299 0.0 0.0 0.00 0.50 0.22 96 971.3
20260509100005 51 299 0.0 0.0 0.00 0.50 0.22 96 971.2
20260509095502 51 299 0.0 0.0 0.00 0.50 0.22 96 971.3
20260509095002 51 299 0.0 0.0 0.00 0.50 0.22 96 971.3
20260509094517 51 299 0.0 0.0 0.00 0.50 0.22 96 971.3
20260509094004 51 299 0.0 0.0 0.00 0.50 0.22 96 971.2
20260509093503 51 299 0.0 0.0 0.00 0.50 0.22 96 971.3
20260509093010 51 299 0.0 0.0 0.01 0.50 0.22 95 971.4
20260509092506 51 299 0.0 0.0 0.01 0.50 0.22 95 971.4
20260509092005 51 299 0.0 0.0 0.01 0.50 0.22 95 971.4
20260509091530 51 299 0.0 0.0 0.01 0.50 0.22 95 971.5
20260509091007 51 299 0.0 0.0 0.01 0.50 0.22 95 971.6
20260509090506 51 299 0.0 0.0 0.01 0.50 0.22 95 971.6
20260509090022 51 299 0.0 0.0 0.01 0.50 0.22 95 971.6
20260509085503 51 299 0.0 0.0 0.01 0.50 0.22 95 971.6
20260509085003 51 299 0.0 0.0 0.01 0.50 0.22 95 971.6
20260509084506 51 299 0.0 0.0 0.01 0.50 0.22 95 971.6
20260509084006 51 299 0.0 0.0 0.01 0.50 0.22 96 971.7
20260509083502 51 299 0.0 0.0 0.02 0.50 0.22 95 971.7
20260509083012 51 299 0.0 0.0 0.01 0.49 0.21 95 971.7
20260509082503 51 299 0.0 0.0 0.01 0.49 0.21 95 971.7
20260509082005 51 299 0.0 0.0 0.01 0.49 0.21 95 971.7
20260509081523 51 299 0.0 0.0 0.02 0.49 0.21 95 971.7
20260509081005 51 299 0.0 0.0 0.02 0.49 0.21 95 971.8
20260509080507 51 299 0.0 0.0 0.03 0.49 0.21 95 971.8
20260509080020 51 299 0.0 0.0 0.04 0.49 0.21 95 971.8
20260509075506 51 299 0.0 0.0 0.05 0.49 0.21 95 971.8
20260509075009 51 299 0.0 0.0 0.06 0.49 0.21 95 971.8
20260509074531 51 299 0.0 0.0 0.07 0.49 0.21 95 971.8
20260509074003 51 299 0.0 0.0 0.08 0.49 0.21 95 971.8
20260509073503 51 299 0.0 0.0 0.08 0.48 0.20 95 971.7
20260509073006 51 299 0.0 0.0 0.09 0.48 0.20 95 971.8
20260509072503 51 299 0.0 0.0 0.09 0.48 0.20 95 971.9
20260509072003 51 299 0.0 0.0 0.10 0.48 0.20 95 972.0
20260509071512 51 299 0.0 0.0 0.09 0.47 0.19 95 972.0
20260509071004 51 299 0.0 0.0 0.10 0.47 0.19 95 972.0
20260509070503 51 299 0.0 0.0 0.10 0.46 0.18 95 972.1
20260509070016 51 299 0.0 0.0 0.09 0.45 0.17 95 972.1
20260509065506 51 299 0.0 0.0 0.10 0.44 0.16 95 972.0
20260509065006 51 299 0.0 0.0 0.10 0.43 0.15 95 972.1
20260509064520 51 299 0.0 0.0 0.09 0.42 0.14 95 972.1
20260509064012 51 299 0.0 0.0 0.08 0.41 0.13 95 972.2
20260509063508 51 299 0.0 0.0 0.08 0.40 0.12 95 972.2
20260509063028 51 299 0.0 0.0 0.08 0.39 0.11 95 972.2
20260509062512 51 299 0.0 0.0 0.08 0.39 0.11 95 972.3
20260509062003 51 299 0.0 0.0 0.08 0.38 0.10 95 972.4
20260509061508 51 299 0.0 0.0 0.08 0.38 0.10 95 972.4
20260509061005 51 299 0.0 0.0 0.07 0.37 0.09 95 972.5
20260509060503 50 299 0.0 0.0 0.07 0.36 0.08 95 972.6
20260509060017 50 299 0.0 0.0 0.07 0.36 0.08 95 972.6
20260509055506 50 299 0.0 0.0 0.05 0.34 0.06 95 972.7
20260509055006 50 299 0.0 0.0 0.04 0.33 0.05 95 972.7
20260509054518 50 299 0.0 0.0 0.04 0.33 0.05 95 972.7
20260509054006 50 299 0.0 0.0 0.04 0.33 0.05 95 972.8
20260509053507 50 299 0.0 0.0 0.03 0.32 0.04 95 972.8
20260509053024 50 299 0.0 0.0 0.03 0.31 0.03 95 972.9
20260509052507 50 299 0.0 0.0 0.03 0.31 0.03 94 972.9
20260509052007 50 299 0.0 0.0 0.02 0.30 0.02 95 972.9
20260509051523 50 299 0.0 0.0 0.02 0.30 0.02 95 973.0
20260509051012 50 299 0.0 0.0 0.02 0.30 0.02 95 973.0
20260509050504 50 299 0.0 0.0 0.01 0.29 0.01 94 973.0
20260509050011 50 299 0.0 0.0 0.01 0.29 0.01 94 973.1
20260509045503 50 299 0.0 0.0 0.01 0.29 0.01 94 973.1
20260509045003 50 299 0.0 0.0 0.02 0.29 0.01 94 973.1
20260509044516 50 299 0.0 0.0 0.02 0.29 0.01 94 973.2
20260509044007 50 299 0.0 0.0 0.03 0.29 0.01 94 973.0
20260509043508 50 299 0.0 0.0 0.03 0.29 0.01 94 973.2
20260509043018 50 299 0.0 0.0 0.02 0.28 0.00 94 973.2
20260509042506 50 299 0.0 0.0 0.02 0.28 0.00 94 973.2
20260509042014 50 299 0.0 0.0 0.03 0.28 0.00 94 973.3
20260509041532 50 299 0.0 0.0 0.03 0.28 0.00 94 973.4
20260509041012 50 299 0.0 0.0 0.04 0.28 0.00 94 973.4
20260509040511 50 299 0.0 0.0 0.04 0.28 0.00 94 973.5
20260509040029 50 299 0.0 0.0 0.04 0.28 0.00 94 973.5
20260509035518 50 299 0.0 0.0 0.04 0.28 0.28 94 973.7
20260509035011 50 299 0.0 0.0 0.03 0.27 0.27 94 973.8
20260509034509 50 299 0.0 0.0 0.03 0.27 0.27 94 974.0
20260509034004 50 299 0.0 0.0 0.02 0.26 0.26 94 974.0
20260509033506 50 299 0.0 0.0 0.02 0.26 0.26 94 974.0
20260509033003 50 299 0.0 0.0 0.02 0.26 0.26 94 974.0
20260509032503 50 299 0.0 0.0 0.02 0.26 0.26 94 974.0
20260509032002 50 299 0.0 0.0 0.01 0.25 0.25 94 974.1
20260509031505 50 299 0.0 0.0 0.01 0.25 0.25 94 974.1
20260509031003 50 299 0.0 0.0 0.00 0.24 0.24 94 974.2
20260509030506 50 299 0.0 0.0 0.01 0.24 0.24 94 974.2
20260509030006 50 299 0.0 0.0 0.01 0.24 0.24 94 974.0
20260509025503 50 299 0.0 0.0 0.01 0.24 0.24 94 974.0
20260509025003 50 299 0.0 0.0 0.01 0.24 0.24 94 974.0
20260509024508 50 299 0.0 0.0 0.01 0.24 0.24 94 974.1
20260509024003 50 299 0.0 0.0 0.01 0.24 0.24 94 974.1
20260509023503 50 299 0.0 0.0 0.01 0.24 0.24 94 974.2
20260509023017 50 299 0.0 0.0 0.02 0.24 0.24 94 974.2
20260509022504 50 299 0.0 0.0 0.02 0.24 0.24 94 974.2
20260509022003 50 299 0.0 0.0 0.02 0.24 0.24 94 974.2
20260509021520 50 299 0.0 0.0 0.02 0.24 0.24 94 974.3
20260509021002 50 299 0.0 0.0 0.02 0.24 0.24 94 974.2
20260509020505 50 299 0.0 0.0 0.02 0.23 0.23 94 974.3
20260509020010 50 299 0.0 0.0 0.02 0.23 0.23 93 974.2
20260509015504 50 299 0.0 0.0 0.02 0.23 0.23 93 974.2
20260509015004 50 299 0.0 0.0 0.03 0.23 0.23 93 974.2
20260509014512 50 299 0.0 0.0 0.03 0.23 0.23 93 974.3
20260509014003 50 299 0.0 0.0 0.03 0.23 0.23 93 974.3
20260509013503 50 299 0.0 0.0 0.03 0.23 0.23 93 974.3
20260509013020 50 299 0.0 0.0 0.03 0.22 0.22 93 974.2
20260509012504 50 299 0.0 0.0 0.03 0.22 0.22 93 974.3
20260509012007 50 299 0.0 0.0 0.04 0.22 0.22 93 974.2
20260509011516 50 299 0.0 0.0 0.04 0.22 0.22 93 974.2
20260509011005 50 299 0.0 0.0 0.04 0.22 0.22 93 974.2
20260509010504 50 299 0.0 0.0 0.04 0.21 0.21 93 974.2
20260509010022 50 299 0.0 0.0 0.04 0.21 0.21 93 974.2
20260509005503 50 299 0.0 0.0 0.04 0.21 0.21 93 974.1
20260509005003 50 299 0.0 0.0 0.04 0.20 0.20 93 974.2
20260509004510 50 299 0.0 0.0 0.04 0.20 0.20 93 974.1
20260509004002 50 299 0.0 0.0 0.04 0.20 0.20 93 974.2
20260509003503 50 299 0.0 0.0 0.04 0.20 0.20 93 974.1
20260509003008 51 299 0.0 0.0 0.04 0.19 0.19 93 974.1
20260509002504 51 299 0.0 0.0 0.05 0.19 0.19 93 974.0
20260509002003 51 299 0.0 0.0 0.05 0.18 0.18 93 974.0
20260509001514 51 299 0.0 0.0 0.06 0.18 0.18 93 974.0
20260509001006 51 299 0.0 0.0 0.06 0.18 0.18 93 974.0
20260509000508 51 299 0.0 0.0 0.06 0.17 0.17 93 974.0
20260509000017 51 299 0.0 0.0 0.07 0.17 0.17 92 973.9
20260508235507 51 299 0.0 0.0 0.08 0.17 0.17 92 973.9
20260508235007 51 299 0.0 0.0 0.07 0.16 0.16 92 973.8
20260508234519 51 299 0.0 0.0 0.08 0.16 0.16 92 973.9
20260508234009 51 299 0.0 0.0 0.09 0.16 0.16 92 973.9
20260508233503 51 299 0.0 0.0 0.10 0.16 0.16 92 973.9
20260508233004 51 299 0.0 0.0 0.09 0.15 0.15 92 973.8
20260508232502 51 299 0.0 0.0 0.09 0.14 0.14 92 973.8
20260508232003 51 299 0.0 0.0 0.09 0.13 0.13 92 973.6
20260508231512 51 299 0.0 0.0 0.09 0.12 0.12 91 973.5
20260508231004 51 299 0.0 0.0 0.09 0.12 0.12 91 973.6
20260508230504 51 299 0.0 0.0 0.08 0.11 0.11 91 973.7
20260508230016 51 299 0.0 0.0 0.07 0.10 0.10 91 973.8
20260508225506 51 299 0.0 0.0 0.06 0.09 0.09 91 973.9
20260508225008 51 299 0.0 0.0 0.06 0.09 0.09 91 974.0
20260508224525 51 299 0.0 0.0 0.05 0.08 0.08 91 973.9
20260508224006 51 299 0.0 0.0 0.04 0.07 0.07 91 973.9
20260508223506 51 299 0.0 0.0 0.04 0.06 0.06 90 973.9
20260508223029 51 299 0.0 0.0 0.04 0.06 0.06 91 974.0
20260508222507 51 299 0.0 0.0 0.03 0.05 0.05 90 973.9
20260508222003 51 299 0.0 0.0 0.02 0.04 0.04 90 974.0
20260508221507 51 299 0.0 0.0 0.02 0.03 0.03 90 973.9
20260508221004 51 299 0.0 0.0 0.03 0.03 0.03 90 973.5
20260508220504 51 299 0.0 0.0 0.03 0.03 0.03 89 973.4
20260508220023 51 299 0.0 0.0 0.03 0.03 0.03 89 973.5
20260508215503 51 299 0.0 0.0 0.03 0.03 0.03 89 973.6
20260508215005 51 299 0.0 0.0 0.03 0.03 0.03 88 973.6
20260508214528 52 299 0.0 0.0 0.03 0.03 0.03 88 973.9
20260508214005 52 299 0.0 0.0 0.03 0.03 0.03 88 973.8
20260508213506 52 299 0.0 0.0 0.02 0.02 0.02 88 973.7
20260508213028 52 299 0.0 0.0 0.02 0.02 0.02 87 974.0
20260508212508 52 299 0.0 0.0 0.02 0.02 0.02 87 974.1
20260508212010 52 299 0.0 0.0 0.02 0.02 0.02 86 974.1
20260508211534 53 299 0.0 0.0 0.01 0.01 0.01 86 974.3
20260508211009 53 299 0.0 0.0 0.00 0.00 0.00 84 974.1
20260508210507 53 299 0.0 0.0 0.00 0.00 0.00 83 974.2
20260508210008 53 299 0.0 0.0 0.00 0.00 0.00 82 974.1
20260508205504 54 299 0.0 0.0 0.00 0.00 0.00 81 974.1
20260508205007 54 299 0.0 0.0 0.00 0.00 0.00 80 974.2
20260508204516 55 299 0.0 0.0 0.00 0.00 0.00 79 974.3
20260508204005 55 299 0.0 0.0 0.00 0.00 0.00 79 974.5
20260508203507 55 299 0.0 0.0 0.00 0.00 0.00 78 974.6
20260508203017 56 299 0.0 0.0 0.00 0.00 0.00 76 974.5
20260508202508 56 299 0.0 0.0 0.00 0.00 0.00 75 974.7
20260508202006 57 299 0.0 0.0 0.00 0.00 0.00 74 974.7
20260508201524 57 299 0.0 0.0 0.00 0.00 0.00 73 974.7
20260508201011 57 299 0.0 0.0 0.00 0.00 0.00 72 974.8
20260508200508 58 299 0.0 0.0 0.00 0.00 0.00 71 974.7
20260508200026 58 299 0.0 0.0 0.00 0.00 0.00 72 974.7
20260508195510 58 299 0.0 0.0 0.00 0.00 0.00 72 974.7
20260508195007 58 299 0.0 0.0 0.00 0.00 0.00 71 974.7
20260508194524 58 299 0.0 0.0 0.00 0.00 0.00 71 974.7
20260508194007 58 299 0.0 0.0 0.00 0.00 0.00 71 974.7
20260508193504 58 299 0.0 0.0 0.00 0.00 0.00 71 974.7
20260508193017 58 299 0.0 0.0 0.00 0.00 0.00 71 974.8
20260508192506 59 300 0.0 0.0 0.00 0.00 0.00 68 974.8
20260508192008 59 300 0.0 0.0 0.00 0.00 0.00 69 974.8
20260508191526 60 299 0.0 0.0 0.00 0.00 0.00 68 974.7
20260508191007 60 299 0.0 0.0 0.00 0.00 0.00 70 974.7
20260508190511 60 298 0.0 0.0 0.00 0.00 0.00 69 974.8
20260508190023 60 298 0.0 0.0 0.00 0.00 0.00 70 974.8
20260508185507 59 298 0.0 0.0 0.00 0.00 0.00 71 974.8
20260508185012 59 299 0.0 0.0 0.00 0.00 0.00 71 974.8
20260508184529 59 299 0.0 0.0 0.00 0.00 0.00 71 974.9
20260508184011 58 298 0.0 0.0 0.00 0.00 0.00 71 974.9
20260508183508 58 299 0.0 0.0 0.00 0.00 0.00 73 975.0
20260508183022 57 299 0.0 0.0 0.00 0.00 0.00 73 975.1
20260508182503 57 299 0.0 0.0 0.00 0.00 0.00 73 975.0
20260508182006 57 299 0.0 0.0 0.00 0.00 0.00 73 975.0
20260508181517 57 299 0.0 0.0 0.00 0.00 0.00 70 975.2
20260508181010 58 299 0.0 0.0 0.00 0.00 0.00 71 975.3
20260508180509 58 299 0.0 0.0 0.00 0.00 0.00 71 975.3
20260508180024 58 298 0.0 0.0 0.00 0.00 0.00 72 975.3
20260508175507 58 297 0.0 0.0 0.00 0.00 0.00 73 975.3
20260508175010 58 297 0.0 0.0 0.00 0.00 0.00 71 975.3
20260508174526 58 297 0.0 0.0 0.00 0.00 0.00 70 975.5
20260508174008 58 297 0.0 0.0 0.00 0.00 0.00 70 975.5
20260508173511 59 297 0.0 0.0 0.00 0.00 0.00 68 975.3
20260508173028 59 298 0.0 0.0 0.00 0.00 0.00 66 975.3
20260508172508 59 299 0.0 0.0 0.00 0.00 0.00 66 975.3
20260508172012 59 297 0.0 0.0 0.00 0.00 0.00 66 975.3
20260508171528 59 297 0.0 0.0 0.00 0.00 0.00 65 975.4
20260508171008 59 297 0.0 0.0 0.00 0.00 0.00 66 975.4
20260508170504 59 297 0.0 0.0 0.00 0.00 0.00 66 975.3
20260508170020 59 297 0.0 0.0 0.00 0.00 0.00 65 975.4
20260508165507 59 297 0.0 0.0 0.00 0.00 0.00 68 975.5
20260508165006 59 297 0.0 0.0 0.00 0.00 0.00 66 975.4
20260508164527 59 297 0.0 0.0 0.00 0.00 0.00 65 975.5
20260508164006 58 297 0.0 0.0 0.00 0.00 0.00 68 975.6
20260508163509 58 297 0.0 0.0 0.00 0.00 0.00 66 975.6
20260508163027 59 297 0.0 0.0 0.00 0.00 0.00 65 975.6
20260508162510 59 299 0.0 0.0 0.00 0.00 0.00 66 975.7
20260508162013 59 297 0.0 0.0 0.00 0.00 0.00 67 975.6
20260508161526 58 296 0.0 0.0 0.00 0.00 0.00 67 975.7
20260508161011 58 296 0.0 0.0 0.00 0.00 0.00 68 975.8
20260508160509 58 297 0.0 0.0 0.00 0.00 0.00 68 975.9
20260508160027 58 296 0.0 0.0 0.00 0.00 0.00 67 975.9
20260508155507 58 297 0.0 0.0 0.00 0.00 0.00 67 975.9
20260508155007 58 296 0.0 0.0 0.00 0.00 0.00 66 976.0
20260508154541 57 296 0.0 0.0 0.00 0.00 0.00 69 975.9
20260508154009 57 297 0.0 0.0 0.00 0.00 0.00 69 975.9
20260508153503 57 296 0.0 0.0 0.00 0.00 0.00 69 975.8
20260508153011 57 296 0.0 0.0 0.00 0.00 0.00 66 976.0
20260508152504 57 296 0.0 0.0 0.00 0.00 0.00 69 976.0
20260508152003 57 297 0.0 0.0 0.00 0.00 0.00 70 975.9
20260508151512 57 297 0.0 0.0 0.00 0.00 0.00 68 975.9
20260508151002 57 297 0.0 0.0 0.00 0.00 0.00 69 976.0
20260508150504 57 297 0.0 0.0 0.00 0.00 0.00 68 976.0
20260508150011 57 296 0.0 0.0 0.00 0.00 0.00 67 976.1
20260508145506 56 296 0.0 0.0 0.00 0.00 0.00 68 976.1
20260508145002 56 296 0.0 0.0 0.00 0.00 0.00 66 976.0
20260508144504 56 296 0.0 0.0 0.00 0.00 0.00 68 976.0
20260508144006 56 296 0.0 0.0 0.00 0.00 0.00 71 975.9
20260508143505 55 296 0.0 0.0 0.00 0.00 0.00 69 975.8
20260508143003 55 296 0.0 0.0 0.00 0.00 0.00 71 975.9
20260508142503 54 296 0.0 0.0 0.00 0.00 0.00 71 976.0
20260508142003 53 296 0.0 0.0 0.00 0.00 0.00 74 976.0
20260508141506 53 296 0.0 0.0 0.00 0.00 0.00 72 976.1
20260508141003 52 296 0.0 0.0 0.00 0.00 0.00 73 976.2
20260508140504 52 296 0.0 0.0 0.00 0.00 0.00 72 976.2
20260508140010 52 296 0.0 0.0 0.00 0.00 0.00 74 976.3
20260508135506 51 296 0.0 0.0 0.00 0.00 0.00 75 976.3
20260508135007 51 296 0.0 0.0 0.00 0.00 0.00 75 976.4
20260508134515 50 296 0.0 0.0 0.00 0.00 0.00 79 976.4
20260508134004 50 296 0.0 0.0 0.00 0.00 0.00 78 976.4
20260508133503 50 296 0.0 0.0 0.00 0.00 0.00 80 976.4
20260508133006 50 296 0.0 0.0 0.00 0.00 0.00 80 976.4
20260508132504 50 296 0.0 0.0 0.00 0.00 0.00 80 976.5
20260508132004 50 296 0.0 0.0 0.00 0.00 0.00 80 976.8
20260508131505 50 296 0.0 0.0 0.00 0.00 0.00 80 976.8
20260508131004 50 296 0.0 0.0 0.00 0.00 0.00 80 976.8
20260508130504 50 296 0.0 0.0 0.00 0.00 0.00 80 976.7
20260508130014 50 296 0.0 0.0 0.00 0.00 0.00 80 976.6
20260508125504 49 296 0.0 0.0 0.00 0.00 0.00 79 976.7
20260508125004 50 296 0.0 0.0 0.00 0.00 0.00 80 976.3
20260508124517 49 296 0.0 0.0 0.00 0.00 0.00 79 976.4
20260508124004 49 296 0.0 0.0 0.00 0.00 0.00 79 976.4
20260508123509 49 296 0.0 0.0 0.00 0.00 0.00 79 976.4
20260508123026 49 296 0.0 0.0 0.00 0.00 0.00 78 976.3
20260508122504 49 296 0.0 0.0 0.00 0.00 0.00 79 976.3
20260508122007 49 296 0.0 0.0 0.00 0.00 0.00 82 976.2
20260508121505 49 296 0.0 0.0 0.00 0.00 0.00 83 976.1
20260508121003 48 296 0.0 0.0 0.00 0.00 0.00 84 976.1
20260508120503 48 296 0.0 0.0 0.00 0.00 0.00 82 976.1
20260508120006 48 296 0.0 0.0 0.00 0.00 0.00 82 976.0
20260508115504 48 296 0.0 0.0 0.00 0.00 0.00 82 976.0